Location: Winter Haven
(28.0220°N, 81.7330°W)
Time: 09:31:47
(UTC-04:00)

Amateur Radio Satellites - All Passes

Search period start: 06 July 2015 09:01
Search period end: 07 July 2015 09:01
Location: Winter Haven, 28.0220°N, 81.7330°W

Satellite Date Start Highest point End Downlink Frequencies (MHz)
Time Altitude Azimuth
DANDE 06 Jul 09:02:42 09:10:15 58° 278° (W) 09:16:08 436.750
AUBIESAT-1 06 Jul 09:03:35 09:06:34 33° 71° (ENE) 09:09:40 437.475
STRAND 1 06 Jul 09:21:53 09:22:22 10° 269° (W) 09:22:25 437.568
CUSAT 1 06 Jul 09:30:38 09:35:40 21° 281° (W) 09:39:41 437.405
COMPASS 1 06 Jul 09:32:59 09:36:06 20° 95° (E) 09:39:20 437.405
GOMX 1 06 Jul 09:33:35 09:37:43 74° 101° (E) 09:41:54 467.674
M-CUBED/EXP-1 PRIME 06 Jul 09:39:37 09:42:47 45° 256° (WSW) 09:46:00 437.505
CUTE 1.7 + AOD 2 06 Jul 09:48:27 09:52:40 56° 100° (E) 09:56:54 437.475
HO-68 06 Jul 09:49:36 09:56:40 62° 102° (ESE) 10:03:45 435.675
CANX-2 06 Jul 09:52:04 09:56:21 72° 101° (E) 10:00:39 2200.000
GONETS M04 06 Jul 10:00:36 10:09:24 76° 277° (W) 10:18:11
DOVE 4 06 Jul 10:08:12 10:12:19 69° 283° (WNW) 10:16:32 437.250
BRITE-PL 06 Jul 10:09:10 10:12:20 20° 287° (WNW) 10:15:21 437.365/2234.400
PHONESAT 2.4 06 Jul 10:15:04 10:16:54 14° 347° (NNW) 10:18:42 2401.200-2431.200
UWE-3 06 Jul 10:25:31 10:28:56 24° 96° (E) 10:32:30 435.000/436.395/437.385
SEEDS 06 Jul 10:33:42 10:37:48 46° 284° (WNW) 10:41:52 437.485
CINEMA 3 06 Jul 10:39:22 10:43:34 70° 282° (WNW) 10:47:53 145.822/145.860
AAUSAT CUBESAT 2 06 Jul 10:39:44 10:43:53 60° 283° (WNW) 10:48:02 437.432
DELFI C3 06 Jul 10:41:57 10:45:38 33° 98° (E) 10:49:21 145.870
ANTELSAT 06 Jul 10:42:12 10:45:37 24° 73° (ENE) 10:49:06 437.575/2403.000
Cosmos 2499 06 Jul 10:47:36 10:54:00 39° 91° (E) 11:00:31 435.465 / 435.565
POLYITAN 1 06 Jul 10:50:18 10:51:03 11° 71° (ENE) 10:52:06 437.675
TIGRISAT 06 Jul 10:53:15 10:57:02 32° 74° (ENE) 11:00:51 435.000
DX 1 06 Jul 10:54:48 10:55:51 11° 92° (E) 10:57:13 434.975-435.025
ZACube-1 06 Jul 11:07:53 11:12:07 63° 100° (E) 11:16:28 437.345
COMPASS 1 06 Jul 11:08:21 11:11:42 22° 286° (WNW) 11:14:55 437.405
VERMONT LUNAR 06 Jul 11:08:44 11:09:59 12° 13° (NNE) 11:11:18 437.305
HUMSAT D 06 Jul 11:10:57 11:14:21 24° 96° (E) 11:17:53 437.325/437.525
UKube-1 06 Jul 11:11:08 11:13:52 17° 95° (E) 11:16:45 .
Oscar 11 06 Jul 11:12:20 11:16:38 60° 283° (WNW) 11:20:54 145.826/435.025
CUBEBUG 2 06 Jul 11:14:24 11:18:37 59° 283° (WNW) 11:22:56 437.445
RS-15 06 Jul 11:14:36 11:25:07 38° 52° (NE) 11:36:14 29.354- 29.394
QB50P2 06 Jul 11:16:53 11:20:19 25° 73° (ENE) 11:23:48 145.880/145.840
POPSAT HIP 1 06 Jul 11:17:08 11:20:30 24° 73° (ENE) 11:23:56 437.405
UNISAT 6 06 Jul 11:33:19 11:37:36 71° 259° (W) 11:41:51 437.425
AISAT 06 Jul 11:38:41 11:42:03 22° 96° (E) 11:45:31 437.250
HO-68 06 Jul 11:38:59 11:43:55 20° 294° (WNW) 11:48:32 435.675
FUNcube-1 06 Jul 11:43:16 11:47:21 45° 284° (WNW) 11:51:30 145.935
CUBEBUG 1 06 Jul 11:50:55 11:53:17 15° 93° (E) 11:55:50 437.445
QB50P1 06 Jul 11:54:58 11:59:13 77° 78° (ENE) 12:03:27 145.935-145.965
PHONESAT 2.4 06 Jul 11:55:07 11:55:54 11° 5° (N) 11:56:43 2401.200-2431.200
UWE-3 06 Jul 12:02:10 12:05:21 20° 287° (WNW) 12:08:28 435.000/436.395/437.385
NANOSAT C BR1 06 Jul 12:08:23 12:12:36 72° 259° (W) 12:16:49 145.865
50 SAT 06 Jul 12:09:15 12:13:09 67° 100° (E) 12:17:04 437.505
DUCHIFAT 1 06 Jul 12:14:38 12:18:49 60° 259° (W) 12:22:59 145.980
ESTCUBE 1 06 Jul 12:17:29 12:21:45 41° 99° (E) 12:26:01 437.505/2401.250
DELFI C3 06 Jul 12:18:33 12:20:27 13° 288° (WNW) 12:22:07 145.870
ANTELSAT 06 Jul 12:19:15 12:22:23 19° 265° (W) 12:25:20 437.575/2403.000
BUGSAT 1 06 Jul 12:22:17 12:26:31 78° 258° (WSW) 12:30:44 437.445
POLYITAN 1 06 Jul 12:22:34 12:26:38 44° 261° (W) 12:30:41 437.675
VELOX 1 06 Jul 12:26:26 12:30:51 88° 102° (ESE) 12:35:14 145.980
DX 1 06 Jul 12:28:14 12:32:20 42° 285° (WNW) 12:36:23 434.975-435.025
TIGRISAT 06 Jul 12:31:30 12:33:54 14° 266° (W) 12:36:03 435.000
Cosmos 2499 06 Jul 12:41:34 12:47:17 25° 285° (WNW) 12:52:48 435.465 / 435.565
VERMONT LUNAR 06 Jul 12:44:22 12:47:24 45° 29° (NNE) 12:50:27 437.305
SPROUT 06 Jul 12:44:37 12:47:19 17° 94° (E) 12:50:10 437.525
UKube-1 06 Jul 12:46:18 12:50:00 28° 287° (WNW) 12:53:38 .
HUMSAT D 06 Jul 12:46:59 12:49:57 18° 287° (WNW) 12:52:49 437.325/437.525
QB50P2 06 Jul 12:53:06 12:56:10 18° 265° (W) 12:59:04 145.880/145.840
POPSAT HIP 1 06 Jul 12:53:12 12:56:19 19° 265° (W) 12:59:18 437.405
AISAT 06 Jul 13:15:05 13:18:32 22° 288° (WNW) 13:21:52 437.250
TISAT 1 06 Jul 13:17:14 13:20:44 26° 97° (E) 13:24:18 437.305
CUBEBUG 1 06 Jul 13:25:52 13:29:44 31° 286° (WNW) 13:33:31 437.445
RS-15 06 Jul 13:26:31 13:38:03 56° 249° (WSW) 13:49:45 29.354- 29.394
PHONESAT 2.4 06 Jul 13:31:57 13:34:45 22° 21° (NNE) 13:37:33 2401.200-2431.200
YUBILEINY 06 Jul 13:49:24 13:54:02 16° 69° (ENE) 13:59:22 435.215
ESTCUBE 1 06 Jul 13:56:05 13:58:18 13° 290° (WNW) 14:00:15 437.505/2401.250
Cosmos 2491 06 Jul 14:06:47 14:08:35 11° 83° (E) 14:11:20 435.465 / 435.565
Oscar 19 06 Jul 14:13:57 14:19:05 81° 78° (ENE) 14:24:14 437.125/150
SPROUT 06 Jul 14:19:47 14:23:24 27° 286° (WNW) 14:26:58 437.525
VERMONT LUNAR 06 Jul 14:21:58 14:24:08 17° 219° (SW) 14:26:15 437.305
ITAMSAT 1 06 Jul 14:31:05 14:35:26 28° 72° (ENE) 14:39:54 435.822/435.867
Gurwin Techsat 1B 06 Jul 14:37:12 14:41:55 35° 73° (ENE) 14:46:44 435.225
JUGNU 06 Jul 14:40:34 14:44:43 20° 164° (SSE) 14:48:59 437.505
BEESAT 06 Jul 14:41:27 14:45:53 38° 98° (E) 14:50:21 436.000
AO-7 06 Jul 14:49:43 14:52:08 12° 59° (ENE) 14:55:16 29.400- 29.500
TISAT 1 06 Jul 14:53:34 14:56:19 17° 288° (WNW) 14:58:53 437.305
SWISSCUBE 06 Jul 14:57:08 15:01:55 66° 102° (ESE) 15:06:40 437.505
ITUPSAT 1 06 Jul 15:03:31 15:08:19 69° 102° (ESE) 15:13:06 437.325
PHONESAT 2.4 06 Jul 15:09:32 15:12:56 57° 215° (SW) 15:16:21 2401.200-2431.200
PCSat 06 Jul 15:15:19 15:20:29 49° 110° (ESE) 15:25:43 145.827
KKS-1 06 Jul 15:21:58 15:24:12 14° 94° (E) 15:26:41 437.445
JAS-2 06 Jul 15:29:24 15:33:30 25° 71° (ENE) 15:37:49 435.910
SRMSAT 06 Jul 15:38:03 15:40:49 14° 161° (SSE) 15:43:45 437.500
YUBILEINY 06 Jul 15:43:07 15:51:54 78° 266° (W) 16:00:41 435.215
ISS 06 Jul 15:43:12 15:46:26 71° 48° (NE) 15:49:38 145.825
AIST 1 06 Jul 15:52:32 15:56:48 55° 94° (E) 16:01:07
Cosmos 2491 06 Jul 15:55:43 16:04:33 86° 94° (E) 16:13:24 435.465 / 435.565
STARS 06 Jul 16:07:07 16:10:55 29° 97° (E) 16:14:46 437.465
SO-50 06 Jul 16:09:41 16:14:02 43° 113° (ESE) 16:18:35 436.795
ITAMSAT 1 06 Jul 16:10:36 16:14:54 25° 264° (W) 16:19:04 435.822/435.867
Gurwin Techsat 1B 06 Jul 16:18:00 16:21:59 21° 265° (W) 16:25:48 435.225
BEESAT 06 Jul 16:20:29 16:23:27 16° 290° (WNW) 16:26:13 436.000
JUGNU 06 Jul 16:28:02 16:33:20 33° 172° (S) 16:38:41 437.505
AO-7 06 Jul 16:35:36 16:43:53 77° 72° (ENE) 16:52:16 29.400- 29.500
HORYU 2 06 Jul 16:49:09 16:53:32 69° 258° (WSW) 16:57:57 437.375
KKS-1 06 Jul 16:56:56 17:00:58 35° 286° (WNW) 17:04:57 437.445
PCSat 06 Jul 17:00:39 17:04:14 17° 305° (NW) 17:07:34 145.827
BEESAT 3 06 Jul 17:07:56 17:11:58 83° 246° (WSW) 17:15:55 437.485
JAS-2 06 Jul 17:14:21 17:18:38 25° 264° (W) 17:22:50 435.910
AIST 2 06 Jul 17:19:54 17:22:56 20° 56° (NE) 17:26:03 435.215
BEESAT 2 06 Jul 17:23:25 17:27:27 70° 245° (WSW) 17:31:24 435.950
SRMSAT 06 Jul 17:24:36 17:29:35 28° 168° (SSE) 17:34:35 437.500
MOZHAYETS 4 06 Jul 17:30:21 17:34:45 42° 98° (E) 17:39:10
Cosmos 2504 06 Jul 17:38:18 17:46:00 67° 83° (E) 17:54:16 435.465 / 435.565
STARS 06 Jul 17:44:17 17:47:10 17° 288° (WNW) 17:49:52 437.465
SO-50 06 Jul 17:51:47 17:54:50 16° 308° (NW) 17:57:45 436.795
O/OREOS (USA 219) 06 Jul 17:53:45 17:58:12 54° 70° (ENE) 18:02:40 437.305
Cosmos 2491 06 Jul 17:58:07 18:02:38 14° 292° (WNW) 18:06:23 435.465 / 435.565
Cubesat XI-IV 06 Jul 17:59:06 18:02:14 17° 69° (ENE) 18:05:38 437.490
JUGNU 06 Jul 18:16:32 18:22:03 38° 182° (S) 18:27:33 437.505
AO-7 06 Jul 18:32:23 18:37:29 16° 267° (W) 18:41:57 29.400- 29.500
AIST 2 06 Jul 18:58:03 19:01:28 24° 249° (WSW) 19:04:45 435.215
CUTE-I 06 Jul 19:01:40 19:07:00 76° 77° (ENE) 19:12:23 437.470
MOZHAYETS 4 06 Jul 19:09:18 19:11:39 13° 289° (WNW) 19:13:45
SRMSAT 06 Jul 19:12:55 19:18:24 38° 178° (S) 19:23:52 437.500
Cosmos 2504 06 Jul 19:32:46 19:37:47 17° 273° (W) 19:42:26 435.465 / 435.565
BRITE-PL 06 Jul 19:34:53 19:38:00 16° 72° (ENE) 19:41:17 437.365/2234.400
Cubesat XI-IV 06 Jul 19:36:52 19:42:00 46° 260° (W) 19:47:09 437.490
CUBESAT XI-V 06 Jul 19:40:26 19:45:07 87° 275° (W) 19:49:44 437.345
DANDE 06 Jul 19:53:03 19:55:35 54° 81° (E) 19:58:14 436.750
STRAND 1 06 Jul 19:55:30 20:00:15 38° 98° (E) 20:05:00 437.568
JUGNU 06 Jul 20:05:39 20:10:43 28° 192° (SSW) 20:15:45 437.505
HO-68 06 Jul 20:12:12 20:17:18 23° 67° (ENE) 20:22:41 435.675
CUSAT 1 06 Jul 20:14:49 20:16:58 22° 263° (W) 20:19:17 437.405
GONETS M04 06 Jul 20:20:03 20:27:56 39° 77° (ENE) 20:35:57
PRISM 06 Jul 20:27:55 20:32:06 88° 283° (WNW) 20:36:15 437.425
GOMX 1 06 Jul 20:34:16 20:39:04 39° 76° (ENE) 20:43:40 467.674
CUTE 1.7 + AOD 2 06 Jul 20:35:50 20:38:25 17° 72° (ENE) 20:41:10 437.475
CANX-2 06 Jul 20:39:04 20:42:09 21° 73° (ENE) 20:45:21 2200.000
SRMSAT 06 Jul 21:01:55 21:07:15 34° 187° (S) 21:12:33 437.500
DOVE 4 06 Jul 21:06:23 21:11:11 53° 77° (ENE) 21:15:44 437.250
BRITE-PL 06 Jul 21:10:54 21:16:15 48° 261° (W) 21:21:19 437.365/2234.400
SEEDS 06 Jul 21:18:38 21:22:36 46° 76° (ENE) 21:26:38 437.485
AAUSAT CUBESAT 2 06 Jul 21:23:42 21:27:25 33° 75° (ENE) 21:31:11 437.432
M-CUBED/EXP-1 PRIME 06 Jul 21:26:12 21:29:48 24° 101° (E) 21:33:37 437.505
CINEMA 3 06 Jul 21:34:14 21:38:33 45° 76° (ENE) 21:42:45 145.822/145.860
STRAND 1 06 Jul 21:35:40 21:39:12 18° 290° (WNW) 21:42:30 437.568
COMPASS 1 06 Jul 21:51:34 21:55:42 81° 259° (WSW) 21:59:52 437.405
JUGNU 06 Jul 21:56:12 21:59:18 14° 199° (SSW) 22:02:17 437.505
HO-68 06 Jul 21:57:42 22:04:39 53° 259° (W) 22:11:35 435.675
ZACube-1 06 Jul 21:58:10 22:01:12 20° 73° (ENE) 22:04:20 437.345
Oscar 11 06 Jul 22:00:12 22:04:12 40° 75° (ENE) 22:08:16 145.826/435.025
CUBEBUG 2 06 Jul 22:05:52 22:10:00 46° 76° (ENE) 22:14:03 437.445
CUTE 1.7 + AOD 2 06 Jul 22:10:33 22:14:09 27° 264° (W) 22:17:42 437.475
GOMX 1 06 Jul 22:13:52 22:17:16 17° 266° (W) 22:20:20 467.674
CANX-2 06 Jul 22:14:41 22:17:58 21° 265° (W) 22:21:10 2200.000
GONETS M04 06 Jul 22:17:02 22:24:38 34° 271° (W) 22:32:02
AUBIESAT-1 06 Jul 22:23:20 22:27:47 80° 287° (WNW) 22:32:27 437.475
FUNcube-1 06 Jul 22:32:01 22:36:08 54° 77° (ENE) 22:40:12 145.935
Cosmos 2499 06 Jul 22:37:14 22:45:19 69° 82° (E) 22:53:59 435.465 / 435.565
DOVE 4 06 Jul 22:47:49 22:49:10 11° 268° (W) 22:50:08 437.250
50 SAT 06 Jul 22:48:23 22:50:13 14° 72° (ENE) 22:52:14 437.505
UWE-3 06 Jul 22:51:27 22:55:40 57° 260° (W) 22:59:47 435.000/436.395/437.385
SRMSAT 06 Jul 22:51:42 22:56:01 20° 196° (SSW) 23:00:14 437.500
TIGRISAT 06 Jul 22:53:16 22:54:54 12° 93° (E) 22:56:51 435.000
DELFI C3 06 Jul 22:56:42 23:00:35 50° 260° (W) 23:04:29 145.870
M-CUBED/EXP-1 PRIME 06 Jul 23:00:48 23:04:29 25° 290° (WNW) 23:08:12 437.505
AAUSAT CUBESAT 2 06 Jul 23:01:17 23:03:09 12° 267° (W) 23:04:47 437.432
ESTCUBE 1 06 Jul 23:11:28 23:14:19 17° 72° (ENE) 23:17:22 437.505/2401.250
CINEMA 3 06 Jul 23:14:39 23:15:58 11° 267° (W) 23:16:55 145.822/145.860
DX 1 06 Jul 23:16:26 23:20:47 66° 76° (ENE) 23:25:08 434.975-435.025
VELOX 1 06 Jul 23:17:20 23:21:17 32° 74° (ENE) 23:25:17 145.980
HUMSAT D 06 Jul 23:30:37 23:34:40 63° 259° (W) 23:38:44 437.325/437.525
UNISAT 6 06 Jul 23:31:55 23:36:05 40° 99° (E) 23:40:23 437.425
UKube-1 06 Jul 23:33:22 23:37:42 83° 258° (WSW) 23:42:03 .
ZACube-1 06 Jul 23:34:08 23:37:28 22° 264° (W) 23:40:39 437.345
Oscar 11 06 Jul 23:39:15 23:40:37 11° 268° (W) 23:41:41 145.826/435.025
QB50P1 06 Jul 23:47:46 23:50:54 21° 96° (E) 23:54:10 145.935-145.965
NANOSAT C BR1 07 Jul 00:00:28 00:04:09 30° 97° (E) 00:07:53 145.865
AISAT 07 Jul 00:04:48 00:09:13 59° 259° (W) 00:13:38 437.250
DUCHIFAT 1 07 Jul 00:06:21 00:10:11 35° 98° (E) 00:14:03 145.980
BUGSAT 1 07 Jul 00:12:04 00:15:20 24° 97° (E) 00:18:40 437.445
CUBEBUG 1 07 Jul 00:14:14 00:18:41 86° 74° (ENE) 00:23:08 437.445
POLYITAN 1 07 Jul 00:14:39 00:18:44 49° 100° (E) 00:22:50 437.675
ANTELSAT 07 Jul 00:16:20 00:20:42 55° 284° (WNW) 00:25:09 437.575/2403.000
50 SAT 07 Jul 00:21:20 00:24:37 26° 263° (W) 00:27:52 437.505
TIGRISAT 07 Jul 00:27:39 00:31:50 41° 284° (WNW) 00:36:04 435.000
Cosmos 2499 07 Jul 00:32:41 00:38:02 18° 273° (W) 00:42:59 435.465 / 435.565
QB50P2 07 Jul 00:43:51 00:48:02 65° 283° (WNW) 00:52:12 145.880/145.840
POPSAT HIP 1 07 Jul 00:43:52 00:48:02 68° 283° (WNW) 00:52:12 437.405
ESTCUBE 1 07 Jul 00:46:56 00:50:58 31° 263° (W) 00:54:59 437.505/2401.250
VELOX 1 07 Jul 00:55:07 00:57:55 16° 266° (W) 01:00:30 145.980
SPROUT 07 Jul 01:06:07 01:10:26 88° 258° (WSW) 01:14:45 437.525
UNISAT 6 07 Jul 01:10:22 01:12:36 13° 288° (WNW) 01:14:36 437.425
QB50P1 07 Jul 01:23:27 01:26:41 21° 287° (WNW) 01:29:48 145.935-145.965
RS-15 07 Jul 01:29:36 01:39:30 44° 109° (ESE) 01:49:44 29.354- 29.394
TISAT 1 07 Jul 01:37:13 01:41:23 55° 260° (W) 01:45:32 437.305
NANOSAT C BR1 07 Jul 01:37:17 01:39:46 15° 288° (WNW) 01:42:03 145.865
BEESAT 07 Jul 01:41:58 01:45:23 20° 71° (ENE) 01:48:57 436.000
DUCHIFAT 1 07 Jul 01:43:43 01:45:43 13° 289° (WNW) 01:47:29 145.980
BUGSAT 1 07 Jul 01:48:01 01:50:39 16° 288° (WNW) 01:53:07 437.445
PCSat 07 Jul 01:53:06 01:58:33 87° 242° (WSW) 02:03:57 145.827
SWISSCUBE 07 Jul 01:57:05 02:01:20 34° 74° (ENE) 02:05:40 437.505
ITUPSAT 1 07 Jul 02:03:40 02:07:59 35° 73° (ENE) 02:12:22 437.325
Cosmos 2491 07 Jul 02:15:46 02:23:05 31° 75° (ENE) 02:30:37 435.465 / 435.565
SO-50 07 Jul 02:27:48 02:32:44 78° 63° (ENE) 02:37:31 436.795
Oscar 19 07 Jul 02:32:39 02:37:37 51° 100° (E) 02:42:38 437.125/150
YUBILEINY 07 Jul 02:41:08 02:47:23 24° 87° (E) 02:54:03 435.215
ITAMSAT 1 07 Jul 02:51:36 02:54:57 18° 94° (E) 02:58:31 435.822/435.867
STARS 07 Jul 02:59:35 03:00:57 12° 70° (ENE) 03:02:35 437.465
Gurwin Techsat 1B 07 Jul 03:00:44 03:04:59 25° 96° (E) 03:09:21 435.225
BEESAT 07 Jul 03:18:54 03:23:04 29° 263° (W) 03:27:10 436.000
SWISSCUBE 07 Jul 03:36:02 03:39:17 17° 266° (W) 03:42:19 437.505
RS-15 07 Jul 03:41:43 03:51:53 42° 306° (NW) 04:02:09 29.354- 29.394
ITUPSAT 1 07 Jul 03:42:53 03:46:00 16° 266° (W) 03:48:53 437.325
AIST 1 07 Jul 03:44:16 03:48:34 62° 265° (W) 03:52:47
KKS-1 07 Jul 03:47:33 03:52:00 87° 77° (ENE) 03:56:28 437.445
Cosmos 2491 07 Jul 04:11:59 04:20:06 44° 270° (W) 04:28:04 435.465 / 435.565
Oscar 19 07 Jul 04:13:58 04:16:37 14° 291° (WNW) 04:18:59 437.125/150
MOZHAYETS 4 07 Jul 04:26:33 04:29:35 18° 72° (ENE) 04:32:47
JAS-2 07 Jul 04:27:16 04:34:11 55° 100° (E) 04:41:43 435.910
ITAMSAT 1 07 Jul 04:29:47 04:34:36 38° 287° (WNW) 04:39:21 435.822/435.867
STARS 07 Jul 04:32:51 04:37:04 44° 261° (W) 04:41:15 437.465
YUBILEINY 07 Jul 04:35:18 04:43:46 54° 280° (W) 04:52:12 435.215
Gurwin Techsat 1B 07 Jul 04:40:22 04:44:56 29° 288° (WNW) 04:49:23 435.225
AO-7 07 Jul 04:45:34 04:53:14 41° 100° (E) 05:00:58 29.400- 29.500
HORYU 2 07 Jul 04:47:21 04:51:31 39° 99° (E) 04:55:44 437.375
VERMONT LUNAR 07 Jul 05:14:52 05:17:34 28° 143° (SE) 05:20:18 437.305
Cosmos 2504 07 Jul 06:01:19 06:08:06 57° 93° (E) 06:14:51 435.465 / 435.565
MOZHAYETS 4 07 Jul 06:02:36 06:06:36 30° 263° (W) 06:10:35
JAS-2 07 Jul 06:13:31 06:18:57 23° 289° (WNW) 06:24:26 435.910
PHONESAT 2.4 07 Jul 06:14:57 06:16:40 13° 140° (SE) 06:18:29 2401.200-2431.200
O/OREOS (USA 219) 07 Jul 06:21:57 06:24:16 15° 102° (ESE) 06:26:49 437.305
Cubesat XI-IV 07 Jul 06:24:51 06:25:49 11° 91° (E) 06:27:15 437.490
HORYU 2 07 Jul 06:25:33 06:27:52 14° 289° (WNW) 06:29:58 437.375
CUBESAT XI-V 07 Jul 06:36:49 06:41:11 40° 75° (ENE) 06:45:36 437.345
AO-7 07 Jul 06:38:28 06:45:55 36° 293° (WNW) 06:53:09 29.400- 29.500
ISS 07 Jul 06:40:44 06:43:55 58° 131° (SE) 06:47:07 145.825
VERMONT LUNAR 07 Jul 06:51:40 06:54:26 29° 335° (NNW) 06:57:11 437.305
BEESAT 3 07 Jul 06:53:39 06:57:41 83° 296° (WNW) 07:01:47 437.485
STRAND 1 07 Jul 07:04:54 07:09:09 27° 72° (ENE) 07:13:30 437.568
BEESAT 2 07 Jul 07:10:03 07:14:06 68° 297° (WNW) 07:18:13 435.950
AIST 2 07 Jul 07:11:05 07:14:17 22° 111° (ESE) 07:17:38 435.215
PRISM 07 Jul 07:11:34 07:14:57 25° 73° (ENE) 07:18:27 437.425
DANDE 07 Jul 07:13:16 07:17:30 17° 95° (E) 07:21:37 436.750
CUTE-I 07 Jul 07:26:02 07:31:15 55° 100° (E) 07:36:28 437.470
CUSAT 1 07 Jul 07:29:50 07:35:42 33° 97° (E) 07:40:31 437.405
PHONESAT 2.4 07 Jul 07:51:02 07:54:26 66° 330° (NNW) 07:57:50 2401.200-2431.200
Cosmos 2504 07 Jul 07:56:27 08:00:48 16° 288° (WNW) 08:04:42 435.465 / 435.565
O/OREOS (USA 219) 07 Jul 07:59:24 08:03:26 33° 292° (WNW) 08:07:27 437.305
Cubesat XI-IV 07 Jul 08:01:06 08:06:24 64° 285° (WNW) 08:11:40 437.490
CUBESAT XI-V 07 Jul 08:16:14 08:18:48 14° 268° (W) 08:21:07 437.345
ISS 07 Jul 08:20:10 08:20:37 10° 325° (NW) 08:20:56 145.825
STRAND 1 07 Jul 08:44:03 08:48:17 25° 264° (W) 08:52:25 437.568
GOMX 1 07 Jul 08:44:25 08:46:54 16° 94° (E) 08:49:36 467.674
PRISM 07 Jul 08:47:31 08:50:23 17° 265° (W) 08:53:06 437.425
AIST 2 07 Jul 08:49:19 08:52:46 23° 303° (WNW) 08:56:11 435.215
